sat.trackr.live / text

‹ back to catalog

STARLINK-35565

NORAD 66803 · 2025-278N

PAYLOAD ACTIVE UNKNOWN

§ Identity

Operator
Country
US
Launch date
2025-12-01
Launch site
AFETR
Launch vehicle
Mass (kg)
RCS (m²)

Purposes: comms

External: N2YO · Heavens-Above · Gunter

§ Orbital elements

Epoch: 2026-05-25T02:38:53.504736Z

Period
94.27 min
Inclination
43.0042°
Eccentricity
0.0001286
Mean motion
15.27585819 rev/d
Perigee alt
482.1 km
Apogee alt
483.9 km
Semi-major
6,861.2 km
B*
4.5920e-4
RAAN
43.0463°
Arg perigee
247.8079°
Mean anomaly
112.2636°
Rev number
2,689

§ Raw data

STARLINK-355651 66803U 25278N   26145.11034149  .00012398  00000+0  45920-3 0  99932 66803  43.0042  43.0463 0001286 247.8079 112.2636 15.27585819 26899

JSON: /api/v1/satellites/66803 · /tle

For live sub-satellite position, see the globe view (requires WebGL).

§ Visibility from observer

Set your observer location to see the next 7 days of passes ≥ 10°. The values pass through the URL so the page stays shareable.

No JS? Fill the form by hand. The geolocation button needs JavaScript.